Flag for Sweden Weather past 2 weeks in Västerås, Sweden

Now
55 °F

Sunny.


Feels Like: 55 °F
Forecast: 58 / 80 °F
Wind: 3 mph from Northeast

Location: Vasteras / Hasslo

Current Time: Jul 1, 2015 at 7:02:10 AM

Latest Report: Jul 1, 2015 at 6:20 AM


Visibility: 10 mi

Pressure: 30.21 "Hg

Humidity: 94%

Dew point: 54 °F

Location of VästeråsLocation

Historic Weather in Västerås — Graph

°F

Västerås temperature yesterday

Maximum temperature yesterday: 73 °F (at 4:20 PM)
Minimum temperature yesterday: 54 °F (at 11:50 PM)
Average temperature yesterday: 63 °F

Past Weeks' High & Low Weather Summary

 TemperatureHumidityPressure
High75 °F (Jun 28, 3:20 PM)100% (Jun 20, 10:20 PM)30.21 "Hg (Jun 20, 10:20 PM)
Low37 °F (Jun 17, 2:50 AM)32% (Jun 16, 5:50 PM)29.59 "Hg (Jun 18, 5:50 AM)
Average58 °F74%29.85 "Hg
* Reported Jun 16 5:20 AM — Jul 1 5:50 AM, Västerås, Weather by CustomWeather, © 2015

Note: Actual official high and low records may vary slightly from our data, if they occured in-between our weather recording intervals... More about our weather records

Advertising

Västerås weather history for previous 24 hours

 ConditionsComfort  
Time TempWeatherWind HumidityBarometerVisibility
5:50 AM
Wed, Jul 1
55 °FSunny.2 mph88%30.21 "Hg10 mi
5:20 AM52 °FCool.2 mph94%30.21 "HgN/A
4:50 AM50 °FCool.3 mph94%30.21 "HgN/A
4:20 AM50 °FCool.1 mph94%30.18 "Hg1 mi
3:50 AM48 °FCool.3 mph100%30.18 "HgN/A
3:20 AM48 °FCool.2 mph100%30.18 "HgN/A
2:50 AM50 °FFog.5 mph94%30.18 "Hg5 mi
2:20 AM50 °FCool.3 mph94%30.18 "HgN/A
1:50 AM50 °FFog.3 mph100%30.18 "Hg0 mi
1:20 AM52 °FFog.2 mph100%30.15 "HgN/A
12:50 AM52 °FCool.2 mph94%30.15 "HgN/A
12:20 AM54 °FCool.3 mph94%30.15 "HgN/A
11:50 PM
Tue, Jun 30
54 °FCool.5 mph94%30.15 "HgN/A
11:20 PM57 °FCool.2 mph88%30.15 "HgN/A
10:50 PM59 °FCool.2 mph88%30.15 "HgN/A
10:20 PM63 °FSunny.2 mph77%30.12 "Hg10 mi
9:50 PM64 °FSunny.7 mph73%30.12 "Hg10 mi
9:20 PM64 °FSunny.1 mph73%30.12 "Hg10 mi
8:50 PM68 °FSunny.2 mph64%30.09 "Hg10 mi
8:20 PM68 °FSunny.2 mph60%30.09 "Hg10 mi
7:50 PM70 °FPassing clouds.3 mph57%30.09 "HgN/A
6:50 PM66 °FPassing clouds.3 mph64%30.07 "HgN/A
6:20 PM68 °FPassing clouds.16 mph53%30.07 "HgN/A
5:50 PM73 °FPassing clouds.5 mph44%30.07 "HgN/A
4:50 PM70 °FScattered clouds.6 mph53%30.07 "HgN/A
4:20 PM73 °FPassing clouds.3 mph47%30.04 "HgN/A
3:50 PM70 °FScattered clouds.7 mph57%30.04 "HgN/A
2:50 PM70 °FScattered clouds.7 mph57%30.04 "HgN/A
2:20 PM68 °FScattered clouds.7 mph60%30.04 "HgN/A
1:50 PM68 °FScattered clouds.9 mph60%30.04 "HgN/A
1:20 PM66 °FScattered clouds.7 mph68%30.04 "HgN/A
12:50 PM66 °FScattered clouds.8 mph68%30.04 "HgN/A
12:20 PM66 °FBroken clouds.6 mph68%30.04 "HgN/A
11:50 AM64 °FPartly sunny.8 mph73%30.01 "HgN/A
11:20 AM64 °FBroken clouds.7 mph73%30.01 "HgN/A
10:50 AM64 °FBroken clouds.9 mph73%30.01 "HgN/A
10:20 AM64 °FBroken clouds.9 mph73%30.01 "HgN/A
9:50 AM64 °FPartly sunny.7 mph73%29.98 "HgN/A
9:20 AM64 °FPartly sunny.6 mph73%29.98 "HgN/A
8:50 AM63 °FPartly sunny.6 mph77%29.98 "HgN/A
8:20 AM63 °FPassing clouds.8 mph77%29.95 "HgN/A
7:50 AM63 °FScattered clouds.6 mph77%29.95 "HgN/A
7:20 AM63 °FPassing clouds.5 mph77%29.95 "HgN/A
Weather by CustomWeather, © 2015

See weather overviewHow to use our weather pages